KO4IEJ Weather Reports


time (UTC)temp
C
wind
direction
speed
KPH
gust
KPH
rain 1hr
cm
rain 24hr
cm
rain mn
cm
humidity
%
barometer
mb
20260508004559 6 0 0.0 1.6 0.00 1.40 1.40 61 1018.9
20260508003055 6 0 0.0 0.0 0.00 1.40 1.40 65 1019.2
20260508001556 7 0 0.0 0.0 0.00 1.40 1.40 58 1019.0
20260508000058 9 25 0.0 1.6 0.00 1.40 1.40 54 1018.8
20260507234558 10 359 0.0 1.6 0.00 1.45 1.40 45 1018.8
20260507233115 11 338 0.0 4.8 0.00 1.45 1.40 44 1018.7
20260507231553 13 345 0.0 6.4 0.00 1.45 1.40 37 1018.9
20260507230058 13 90 4.8 9.7 0.00 1.45 1.40 38 1018.7
20260507224559 13 77 3.2 9.7 0.00 1.47 1.40 36 1018.9
20260507223105 12 325 1.6 4.8 0.00 1.47 1.40 40 1019.0
20260507221557 12 240 0.0 6.4 0.03 1.47 1.40 39 1019.0
20260507220058 11 236 1.6 6.4 0.03 1.47 1.40 40 1019.0
20260507214557 11 245 1.6 6.4 0.05 1.55 1.40 42 1019.2
20260507213054 11 119 1.6 8.0 0.08 1.55 1.40 42 1019.6
20260507211602 11 115 1.6 6.4 0.10 1.52 1.37 42 1019.9
20260507210113 10 252 1.6 4.8 0.28 1.52 1.37 42 1020.2
20260507204555 10 275 1.6 6.4 0.48 1.47 1.32 38 1020.5
20260507203056 10 240 1.6 8.0 0.69 1.47 1.32 33 1020.8
20260507201559 11 224 1.6 6.4 0.84 1.42 1.27 33 1021.1
20260507200105 11 224 3.2 4.8 0.89 1.24 1.09 33 1021.0
20260507194608 11 248 1.6 3.2 0.84 1.02 0.86 34 1021.0
20260507193052 11 191 1.6 4.8 0.61 0.76 0.61 30 1021.1
20260507191554 11 217 1.6 3.2 0.43 0.58 0.43 34 1021.2
20260507190107 10 266 0.0 3.2 0.20 0.36 0.20 37 1021.4
20260507184554 10 252 0.0 3.2 0.03 0.18 0.03 38 1021.7
20260507183114 9 0 0.0 1.6 0.00 0.15 0.00 46 1022.0
20260507181559 7 0 0.0 1.6 0.00 0.15 0.00 42 1022.4
20260507180055 6 0 0.0 0.0 0.00 0.15 0.00 47 1022.5
20260507174602 6 0 0.0 0.0 0.00 0.15 0.00 53 1022.4
20260507173115 5 0 0.0 0.0 0.00 0.15 0.00 55 1022.6
20260507171557 4 0 0.0 0.0 0.00 0.15 0.00 57 1022.6
20260507170054 3 0 0.0 0.0 0.00 0.15 0.00 52 1022.7
20260507164622 3 0 0.0 0.0 0.00 0.15 0.00 59 1022.8
20260507163059 3 0 0.0 0.0 0.00 0.15 0.00 65 1022.5
20260507161559 2 0 0.0 0.0 0.00 0.15 0.00 63 1022.7
20260507160052 1 0 0.0 0.0 0.00 0.15 0.00 60 1022.7
20260507154556 2 0 0.0 0.0 0.00 0.15 0.00 61 1022.9
20260507153055 2 0 0.0 0.0 0.00 0.15 0.00 66 1022.8
20260507151553 2 0 0.0 0.0 0.00 0.15 0.00 63 1023.2
20260507150055 2 0 0.0 0.0 0.00 0.15 0.00 63 1023.0
20260507144600 1 0 0.0 0.0 0.00 0.15 0.00 65 1022.8
20260507143105 2 0 0.0 0.0 0.00 0.15 0.00 65 1022.8
20260507141601 0 0 0.0 0.0 0.00 0.15 0.00 73 1022.7
20260507140052 0 0 0.0 0.0 0.00 0.15 0.00 75 1022.6
20260507134600 -1 0 0.0 0.0 0.00 0.15 0.00 85 1022.6
20260507133057 -3 0 0.0 0.0 0.00 0.15 0.00 89 1022.8
20260507131607 -4 0 0.0 0.0 0.00 0.15 0.00 89 1022.3
20260507130055 -5 0 0.0 0.0 0.00 0.15 0.00 91 1022.3
20260507124602 -7 0 0.0 0.0 0.00 0.15 0.00 90 1022.1
20260507123048 -7 0 0.0 0.0 0.00 0.15 0.00 91 1022.3
20260507121555 -8 0 0.0 0.0 0.00 0.15 0.00 91 1022.4
20260507120055 -8 0 0.0 0.0 0.00 0.15 0.00 90 1022.3
20260507114606 -8 0 0.0 0.0 0.00 0.15 0.00 90 1022.1
20260507113126 -8 0 0.0 0.0 0.00 0.15 0.00 91 1022.2
20260507111558 -8 0 0.0 0.0 0.00 0.15 0.00 91 1022.0
20260507110049 -8 0 0.0 0.0 0.00 0.15 0.00 91 1022.0
20260507104556 -8 0 0.0 0.0 0.00 0.15 0.00 91 1022.0
20260507103056 -8 0 0.0 0.0 0.00 0.15 0.00 91 1022.3
20260507101556 -8 0 0.0 0.0 0.00 0.15 0.00 91 1022.2
20260507100057 -8 0 0.0 0.0 0.00 0.15 0.00 90 1022.0
20260507094557 -8 0 0.0 0.0 0.00 0.15 0.00 90 1022.3
20260507093056 -8 0 0.0 0.0 0.00 0.15 0.00 91 1022.6
20260507091630 -8 0 0.0 0.0 0.00 0.15 0.00 90 1022.4
20260507090053 -8 0 0.0 0.0 0.00 0.15 0.00 90 1022.3
20260507084604 -7 0 0.0 0.0 0.00 0.15 0.00 91 1022.2
20260507083051 -7 0 0.0 0.0 0.00 0.15 0.00 91 1022.3
20260507081558 -7 0 0.0 0.0 0.00 0.15 0.00 90 1022.3
20260507080053 -7 0 0.0 0.0 0.00 0.15 0.00 91 1022.3
20260507074558 -7 0 0.0 0.0 0.00 0.15 0.00 90 1022.4
20260507073055 -7 0 0.0 0.0 0.00 0.15 0.00 91 1022.4
20260507071552 -7 0 0.0 0.0 0.00 0.15 0.00 91 1022.4
20260507070105 -7 0 0.0 0.0 0.00 0.15 0.00 91 1022.6
20260507064552 -7 0 0.0 0.0 0.00 0.15 0.00 91 1022.6
20260507063053 -7 0 0.0 0.0 0.00 0.15 0.00 90 1022.6
20260507061552 -7 0 0.0 0.0 0.00 0.15 0.00 91 1022.3
20260507060100 -7 0 0.0 0.0 0.00 0.15 0.00 91 1022.2
20260507054549 -7 0 0.0 0.0 0.00 0.15 0.15 91 1022.0
20260507053057 -7 0 0.0 0.0 0.00 0.15 0.15 91 1021.8
20260507051553 -7 0 0.0 0.0 0.00 0.15 0.15 90 1021.7
20260507050049 -7 0 0.0 0.0 0.00 0.15 0.15 91 1021.4
20260507044606 -7 0 0.0 0.0 0.00 0.15 0.15 91 1021.3
20260507043103 -7 0 0.0 0.0 0.00 0.15 0.15 90 1021.1
20260507041556 -7 0 0.0 0.0 0.00 0.15 0.15 90 1021.0
20260507040055 -7 0 0.0 0.0 0.00 0.15 0.15 91 1020.9
20260507034555 -7 0 0.0 0.0 0.00 0.15 0.15 91 1020.8
20260507033056 -7 0 0.0 0.0 0.00 0.15 0.15 90 1020.8
20260507031557 -7 0 0.0 0.0 0.00 0.15 0.15 89 1020.6
20260507030057 -6 0 0.0 0.0 0.00 0.15 0.15 89 1020.6
20260507024557 -6 0 0.0 0.0 0.00 0.15 0.15 90 1020.4
20260507023108 -6 0 0.0 0.0 0.00 0.15 0.15 89 1020.5
20260507021555 -6 0 0.0 0.0 0.00 0.15 0.15 88 1020.3
20260507020103 -6 0 0.0 0.0 0.00 0.15 0.15 87 1020.2
20260507014559 -5 0 0.0 0.0 0.00 0.18 0.15 87 1020.0
20260507013057 -5 0 0.0 0.0 0.00 0.18 0.15 85 1019.9
20260507011603 -4 0 0.0 0.0 0.00 0.18 0.15 82 1019.6
20260507010052 -2 0 0.0 0.0 0.00 0.18 0.15 81 1019.3